Rbgn^[z[y[W
メイン
   新天体発見情報
     Comet P/2023 Y3 = 2017 BQ100 (ATLAS)
投稿するにはまず登録を

スレッド表示 | 新しいものから 前のトピック | 次のトピック | 下へ
投稿者 スレッド
佐藤裕久
投稿日時: 2024-2-3 17:45
モデレータ
登録日: 2005-6-12
居住地: 日本
投稿: 2701
オンライン
Comet P/2023 Y3 = 2017 BQ100 (ATLAS)

A. Fitzsimmonsの通報によると、L. Denneauは、2023年12月19日UT、南アフリカ Sutherlandに
ある小惑星地球衝突最終警報システム Asteroid Terrestrial-impact Last Alert System 
(ATLAS)調査プログラムのコースに0.5-m Schmidt 反射望遠鏡で得た、CCD画像から彗星を発見
した。Fitzsimmonsの測定では、頭部は5".3のシーイングで8".5 (半値全幅:FWHM)で、p.a. 310°
方向に伸びて見える。
その後、小惑星センターは、"isolated tracklet file"に、2023年12月13日、チリ Rio Hurtado
にある0.5-m Schmidt 反射望遠鏡で得た3つりATLAS観測と同定した。
小惑星センターのPCCP webpageに公表後、R. Weryk (西オンタリオ大学,物理および天文学科)は、
2023年11月17.6日UT、HaleakalaにあるPan-STARRS2 1.8-m Ritchey-Chretien 反射望遠鏡で得た
CCD画像から、この彗星を見つけた。1".4のシーイングで非常に集光した1".7(FWHM)の頭部とp.a.
275°に明瞭な尾が見えた。
Werykは、2017年1月28日、Pan-STARRS1望遠鏡で発見された小惑星状天体と同定した。
2017年2月12日、MPS 766268に2017 BQ100と命名されていた。
佐藤英貴氏(東京都文京区,2023年12月20.3日UT、60-秒CCD露出8枚のスタック, "Deep Sky Chile" 
0.51-m f/6.8 アストログラフ, Rio Hurtado, チリ, 遠隔操作:強く集光した5" のコマが見え、
p.a. 285°に向かって10" の尾が伸びている。2".8の円形範囲で測定した光度は19.1等であった)
や池村俊彦氏 (愛知県名古屋市, 2024年1月11.66日,60-秒CCD露出16枚のスタック, 0.38-m f/4.2 
反射望遠鏡, 新城市:Q11, 測定は佐藤裕久, 福島県須賀川市): 集光した約13"のコマが見えるが
尾はない。全光度18.2等)らCCD位置観測者によって彗星状と観測された。

彗星機能の報告は次のとおり、

OC   Date        Reporter           Coma    Tail    PA          Exposures
F51  2017-01-28  R. Weryk                    10"    270	      	  4x45s
W84  2017-01-28  S. Deen            1".1     11"    267 
F52  2023-11-17  R. Weryk           0".4      4"    275           2x45s
F51  2023-11-20  R. Weryk           0".3      4"    275           3x45s
G96  2023-12-05  D. Rankin    	    5"	      7"    270
G18  2023-12-19  A. Valvasori       6".4      5"    302          45x120s
Z28  2023-12-19  J. Camarasa        9"       17"    279     
L06  2023-12-19  P. Sicoli          5".1      9"    292 
W62  2023-12-20  J. Maikner         6"       11"    280          44x120s
X07  2023-12-20  H. Sato            5"       10"    285           8x60s
204  2023-12-24  A. Aletti          7"                          200x30s
W85  2024-12-31  J. D. Armstrong    4"        4"    275       
204  2024-01-01  L. Buzzi           5"       13"    273          42x30s
W62  2024-01-03  J. Maikner        10"       18"    275          50x120s
G00  2024-01-04  M. Jaeger          9"       22"    270          15x160
W68  2024-01-06  A. Fitzsimmons     9"       12"    280
B96  2024-01-09  E. Bryssinck      12"       13"    255          24x120s
903  2024-01-11  Y. Yoshimi        12"                           25x60s
Q11  2024-01-11  H. Sato           13"                           16x60s
G00  2024-01-12  M. Jaeger         10"       25"    264          15x100s
A77  2024-01-12  F. Kugel           9"       20"    270          
C40  2024-01-16  A. Ivanov         30"
G00  2024-01-16  M. Jaeger         12"       45"    267          11x100s
970  2024-01-18  N. James           4"       10"    260          20x60s
J95  2024-01-18  P. Birtwhistle     8"       26"    270         138x12s
J95  2024-01-26  P. Birtwhistle     6"       15"    260         240x12s

発見位置は次のとおり、

     2023 UT             R.A. (2000) Decl.       Mag.
     Dec. 18.98291    7 21 11.73   +13 13 03.9   18.9
          18.98472    7 21 11.63   +13 13 04.2   18.7
          18.98787    7 21 11.56   +13 13 04.3   18.9
          19.00861    7 21 10.82   +13 13 09.7   18.8

2017 BQ100の発見位置は次のとおり、

     2017 UT             R.A. (2000) Decl.       Mag.
     Jan. 28.49125    8 46 14.92   +18 06 09.7   20.8
          28.50412    8 46 14.35   +18 06 16.4   20.8
          28.51709    8 46 13.78   +18 06 23.2   20.7
          28.53002    8 46 13.22   +18 06 29.8   20.9

MPCの連結軌道要素、位置推算表は次のとおり、

Orbital elements:
    P/2023 Y3 (ATLAS)                                                           
Epoch 2023 Sept. 13.0 TT = JDT 2460200.5                                        
T 2024 May 1.81561 TT                                   Rudenko                 
q   2.3939182            (2000.0)            P               Q                  
n   0.14152028     Peri.   13.12771     -0.76625232     -0.61893718             
a   3.6468979      Node   127.27583     +0.56819350     -0.77809452             
e   0.3435741      Incl.   12.52394     +0.30002256     -0.10717129             
P   6.96                                                                        
From 448 observations 2015 Sept. 18-2024 Jan. 22, mean residual 0".6.           
                                                                                
Ephemeris:
Date    TT    R. A. (2000) Decl.     Delta      r    Elong.  Phase   m1
2023 12 28    07 15 28.7 +13 57 30   1.5647  2.5268   164.7     5.9  18.5
...
2024 01 12    07 03 53.5 +15 33 56   1.5218  2.4982   171.1     3.5  18.4
...
2024 01 20    06 57 44.4 +16 32 42   1.5246  2.4842   163.6     6.4  18.4
...
2024 01 26    06 53 37.7 +17 18 00   1.5378  2.4743   157.0     8.9  18.4
2024 01 27    06 53 00.1 +17 25 35   1.5409  2.4727   155.9     9.4  18.4
2024 01 28    06 52 23.8 +17 33 08   1.5443  2.4711   154.8     9.8  18.4
...
2024 02 03    06 49 13.3 +18 18 08   1.5694  2.4619   148.1    12.2  18.4
...
2024 02 11    06 46 24.8 +19 16 04   1.6153  2.4504   139.4    15.2  18.4
...
2024 02 26    06 46 17.4 +20 53 35   1.7328  2.4316   124.2    19.7  18.6

(MPEC 2024-B139、CBET 5338、oaa-comet 6126)

スレッド表示 | 新しいものから 前のトピック | 次のトピック | トップ

投稿するにはまず登録を
 
© 1999 Tsutomu Seki.